Time,TemperatureF,DewpointF,PressureIn,WindDirection,WindDirectionDegrees,WindSpeedMPH,WindSpeedGustMPH,Humidity,HourlyPrecipIn,Conditions,Clouds,dailyrainin,SoftwareType,DateUTC
2013-08-14 00:00:00,63.6,61.2,29.94,SSW,199,0.0,0.0,92,0.00,,,0.00,Wunderground v.1.15,2013-08-14 04:00:00,
2013-08-14 00:05:00,63.4,61.0,29.94,SSW,199,0.0,0.0,92,0.00,,,0.00,Wunderground v.1.15,2013-08-14 04:05:00,
2013-08-14 00:10:00,63.2,60.8,29.94,SSW,199,0.0,0.0,92,0.00,,,0.00,Wunderground v.1.15,2013-08-14 04:10:00,
2013-08-14 00:15:00,63.1,60.7,29.94,SSW,199,0.0,0.0,92,0.00,,,0.00,Wunderground v.1.15,2013-08-14 04:15:00,
2013-08-14 00:20:00,63.1,61.0,29.94,SSW,199,0.0,0.0,93,0.00,,,0.00,Wunderground v.1.15,2013-08-14 04:20:00,
2013-08-14 00:25:00,63.1,61.0,29.94,SSW,199,0.0,0.0,93,0.00,,,0.00,Wunderground v.1.15,2013-08-14 04:25:00,
2013-08-14 00:30:00,63.0,60.9,29.94,SSW,199,0.0,0.0,93,0.00,,,0.00,Wunderground v.1.15,2013-08-14 04:30:00,
2013-08-14 00:40:00,63.0,60.9,29.94,SSW,199,0.0,0.0,93,0.00,,,0.00,Wunderground v.1.15,2013-08-14 04:40:00,
2013-08-14 00:45:00,63.0,60.9,29.94,SSW,199,0.0,0.0,93,0.00,,,0.00,Wunderground v.1.15,2013-08-14 04:45:00,
2013-08-14 00:50:00,62.9,60.8,29.94,SSW,199,0.0,0.0,93,0.00,,,0.00,Wunderground v.1.15,2013-08-14 04:50:00,
2013-08-14 00:55:00,62.8,60.7,29.94,SSW,199,0.0,0.0,93,0.00,,,0.00,Wunderground v.1.15,2013-08-14 04:55:00,
2013-08-14 01:00:00,62.8,60.7,29.94,SSW,199,0.0,0.0,93,0.00,,,0.00,Wunderground v.1.15,2013-08-14 05:00:00,
2013-08-14 01:10:00,62.8,60.7,29.94,SSW,199,0.0,0.0,93,0.00,,,0.00,Wunderground v.1.15,2013-08-14 05:10:00,
2013-08-14 01:15:00,62.9,60.8,29.94,SSW,199,0.0,0.0,93,0.00,,,0.00,Wunderground v.1.15,2013-08-14 05:15:00,
2013-08-14 01:20:00,62.9,60.8,29.94,SSW,199,0.0,0.0,93,0.00,,,0.00,Wunderground v.1.15,2013-08-14 05:20:00,
2013-08-14 01:25:00,63.0,60.9,29.94,SSW,199,0.0,0.0,93,0.00,,,0.00,Wunderground v.1.15,2013-08-14 05:25:00,
2013-08-14 01:35:00,63.0,60.9,29.94,SSW,199,0.0,0.0,93,0.00,,,0.00,Wunderground v.1.15,2013-08-14 05:35:00,
2013-08-14 01:40:00,63.0,60.9,29.94,SSW,199,0.0,0.0,93,0.00,,,0.00,Wunderground v.1.15,2013-08-14 05:40:00,
2013-08-14 01:45:00,63.0,60.9,29.94,SSW,199,0.0,0.0,93,0.00,,,0.00,Wunderground v.1.15,2013-08-14 05:45:00,
2013-08-14 01:50:00,63.0,60.9,29.93,SSW,199,0.0,0.0,93,0.00,,,0.00,Wunderground v.1.15,2013-08-14 05:50:00,
2013-08-14 01:55:00,63.0,60.9,29.94,SSW,199,0.0,0.0,93,0.00,,,0.00,Wunderground v.1.15,2013-08-14 05:55:00,
2013-08-14 02:00:00,62.9,60.8,29.94,SSW,199,0.0,0.0,93,0.00,,,0.00,Wunderground v.1.15,2013-08-14 06:00:00,
2013-08-14 02:10:00,62.8,60.7,29.94,SSW,199,0.0,0.0,93,0.00,,,0.00,Wunderground v.1.15,2013-08-14 06:10:00,
2013-08-14 02:15:00,62.9,60.8,29.95,SSW,199,0.0,0.0,93,0.00,,,0.00,Wunderground v.1.15,2013-08-14 06:15:00,
2013-08-14 02:25:00,62.9,60.8,29.95,SSW,199,0.0,0.0,93,0.00,,,0.00,Wunderground v.1.15,2013-08-14 06:25:00,
2013-08-14 02:30:00,62.9,60.8,29.95,SSW,199,0.0,0.0,93,0.00,,,0.00,Wunderground v.1.15,2013-08-14 06:30:00,
2013-08-14 02:35:00,62.9,60.8,29.95,SSW,199,0.0,0.0,93,0.00,,,0.00,Wunderground v.1.15,2013-08-14 06:35:00,
2013-08-14 02:40:00,62.9,60.8,29.95,SSW,199,0.0,0.0,93,0.00,,,0.00,Wunderground v.1.15,2013-08-14 06:40:00,
2013-08-14 02:45:00,62.9,60.8,29.95,SSW,199,0.0,0.0,93,0.00,,,0.00,Wunderground v.1.15,2013-08-14 06:45:00,
2013-08-14 02:55:00,62.9,60.8,29.95,SSW,199,0.0,1.0,93,0.00,,,0.00,Wunderground v.1.15,2013-08-14 06:55:00,
2013-08-14 03:00:00,62.8,61.0,29.95,West,265,0.0,0.0,94,0.00,,,0.00,Wunderground v.1.15,2013-08-14 07:00:00,
2013-08-14 03:05:00,62.8,61.0,29.95,West,265,0.0,0.0,94,0.00,,,0.00,Wunderground v.1.15,2013-08-14 07:05:00,
2013-08-14 03:10:00,62.7,60.9,29.95,West,265,0.0,0.0,94,0.00,,,0.00,Wunderground v.1.15,2013-08-14 07:10:00,
2013-08-14 03:20:00,62.4,60.3,29.95,West,265,0.0,0.0,93,0.00,,,0.00,Wunderground v.1.15,2013-08-14 07:20:00,
2013-08-14 03:25:00,62.3,60.2,29.95,West,265,0.0,0.0,93,0.00,,,0.00,Wunderground v.1.15,2013-08-14 07:25:00,
2013-08-14 03:30:00,62.3,60.2,29.95,West,265,0.0,0.0,93,0.00,,,0.00,Wunderground v.1.15,2013-08-14 07:30:00,
2013-08-14 03:40:00,62.2,60.5,29.95,West,265,0.0,0.0,94,0.00,,,0.00,Wunderground v.1.15,2013-08-14 07:40:00,
2013-08-14 03:45:00,62.1,60.4,29.96,West,265,0.0,0.0,94,0.00,,,0.00,Wunderground v.1.15,2013-08-14 07:45:00,
2013-08-14 03:55:00,62.0,60.3,29.96,SSW,196,0.0,3.0,94,0.00,,,0.00,Wunderground v.1.15,2013-08-14 07:55:00,
2013-08-14 04:00:00,61.8,59.8,29.96,SSW,196,1.0,1.0,93,0.00,,,0.00,Wunderground v.1.15,2013-08-14 08:00:00,
2013-08-14 04:05:00,61.5,59.5,29.96,SSW,202,0.0,1.0,93,0.00,,,0.00,Wunderground v.1.15,2013-08-14 08:05:00,
2013-08-14 04:10:00,61.3,59.3,29.96,South,181,0.0,0.0,93,0.00,,,0.00,Wunderground v.1.15,2013-08-14 08:10:00,
2013-08-14 04:15:00,61.2,58.9,29.96,South,171,0.0,4.0,92,0.00,,,0.00,Wunderground v.1.15,2013-08-14 08:15:00,
2013-08-14 04:25:00,61.5,58.8,29.96,SE,146,1.0,1.0,91,0.00,,,0.00,Wunderground v.1.15,2013-08-14 08:25:00,
2013-08-14 04:35:00,61.5,58.8,29.97,SE,146,1.0,4.0,91,0.00,,,0.00,Wunderground v.1.15,2013-08-14 08:35:00,
2013-08-14 04:40:00,61.4,58.7,29.97,SSE,165,0.0,0.0,91,0.00,,,0.00,Wunderground v.1.15,2013-08-14 08:40:00,
2013-08-14 04:45:00,61.4,58.7,29.97,SSE,166,0.0,0.0,91,0.00,,,0.00,Wunderground v.1.15,2013-08-14 08:45:00,
2013-08-14 04:50:00,61.2,58.6,29.98,SSE,165,0.0,0.0,91,0.00,,,0.00,Wunderground v.1.15,2013-08-14 08:50:00,
2013-08-14 05:00:00,60.8,58.5,29.98,South,183,1.0,1.0,92,0.00,,,0.00,Wunderground v.1.15,2013-08-14 09:00:00,
2013-08-14 05:05:00,60.6,58.0,29.98,SE,132,1.0,1.0,91,0.00,,,0.00,Wunderground v.1.15,2013-08-14 09:05:00,
2013-08-14 05:10:00,60.7,57.7,29.98,West,278,3.0,3.0,90,0.00,,,0.00,Wunderground v.1.15,2013-08-14 09:10:00,
2013-08-14 05:15:00,61.2,57.6,29.98,West,271,3.0,3.0,88,0.00,,,0.00,Wunderground v.1.15,2013-08-14 09:15:00,
2013-08-14 05:20:00,61.5,57.3,29.98,WNW,282,3.0,3.0,86,0.00,,,0.00,Wunderground v.1.15,2013-08-14 09:20:00,
2013-08-14 05:25:00,61.6,57.0,29.98,West,273,3.0,3.0,85,0.00,,,0.00,Wunderground v.1.15,2013-08-14 09:25:00,
2013-08-14 05:30:00,61.5,57.3,29.98,WSW,254,1.0,1.0,86,0.00,,,0.00,Wunderground v.1.15,2013-08-14 09:30:00,
2013-08-14 05:40:00,61.1,57.5,29.98,SSW,193,1.0,1.0,88,0.00,,,0.00,Wunderground v.1.15,2013-08-14 09:40:00,
2013-08-14 05:50:00,60.3,57.0,29.99,SSW,193,0.0,0.0,89,0.00,,,0.00,Wunderground v.1.15,2013-08-14 09:50:00,
2013-08-14 05:55:00,59.8,56.6,29.99,SSW,198,0.0,0.0,89,0.00,,,0.00,Wunderground v.1.15,2013-08-14 09:55:00,
2013-08-14 06:00:00,59.5,56.6,29.99,SSW,198,0.0,0.0,90,0.00,,,0.00,Wunderground v.1.15,2013-08-14 10:00:00,
2013-08-14 06:10:00,58.9,56.3,29.99,SSW,198,0.0,0.0,91,0.00,,,0.00,Wunderground v.1.15,2013-08-14 10:10:00,
2013-08-14 06:15:00,58.7,56.1,29.99,SSW,198,0.0,0.0,91,0.00,,,0.00,Wunderground v.1.15,2013-08-14 10:15:00,
2013-08-14 06:20:00,58.4,55.8,29.99,SSW,198,0.0,0.0,91,0.00,,,0.00,Wunderground v.1.15,2013-08-14 10:20:00,
2013-08-14 06:25:00,58.1,55.8,30.00,SSW,198,0.0,0.0,92,0.00,,,0.00,Wunderground v.1.15,2013-08-14 10:25:00,
2013-08-14 06:30:00,57.9,55.6,30.00,SSW,198,0.0,0.0,92,0.00,,,0.00,Wunderground v.1.15,2013-08-14 10:30:00,
2013-08-14 06:40:00,57.5,55.2,30.00,SSW,198,0.0,0.0,92,0.00,,,0.00,Wunderground v.1.15,2013-08-14 10:40:00,
2013-08-14 06:45:00,57.3,55.0,30.00,SSW,198,0.0,0.0,92,0.00,,,0.00,Wunderground v.1.15,2013-08-14 10:45:00,
2013-08-14 06:55:00,56.8,54.5,30.01,SSW,198,0.0,0.0,92,0.00,,,0.00,Wunderground v.1.15,2013-08-14 10:55:00,
2013-08-14 07:00:00,56.6,54.3,30.01,SSW,198,0.0,0.0,92,0.00,,,0.00,Wunderground v.1.15,2013-08-14 11:00:00,
2013-08-14 07:10:00,56.3,54.0,30.02,SSW,200,0.0,1.0,92,0.00,,,0.00,Wunderground v.1.15,2013-08-14 11:10:00,
2013-08-14 07:15:00,56.2,54.2,30.02,SSW,200,0.0,1.0,93,0.00,,,0.00,Wunderground v.1.15,2013-08-14 11:15:00,
2013-08-14 07:25:00,56.3,54.3,30.02,SSW,200,0.0,1.0,93,0.00,,,0.00,Wunderground v.1.15,2013-08-14 11:25:00,
2013-08-14 07:30:00,56.4,54.4,30.02,SSW,200,0.0,0.0,93,0.00,,,0.00,Wunderground v.1.15,2013-08-14 11:30:00,
2013-08-14 07:35:00,56.6,54.6,30.02,SSW,200,0.0,0.0,93,0.00,,,0.00,Wunderground v.1.15,2013-08-14 11:35:00,
2013-08-14 07:45:00,56.9,54.9,30.02,SSW,200,0.0,0.0,93,0.00,,,0.00,Wunderground v.1.15,2013-08-14 11:45:00,
2013-08-14 07:55:00,57.2,55.5,30.03,SSW,200,0.0,0.0,94,0.00,,,0.00,Wunderground v.1.15,2013-08-14 11:55:00,
2013-08-14 08:00:00,57.5,55.8,30.03,SSW,200,0.0,0.0,94,0.00,,,0.00,Wunderground v.1.15,2013-08-14 12:00:00,
2013-08-14 08:05:00,57.7,55.7,30.03,SSW,200,0.0,0.0,93,0.00,,,0.00,Wunderground v.1.15,2013-08-14 12:05:00,
2013-08-14 08:10:00,57.8,55.8,30.03,SSW,200,0.0,0.0,93,0.00,,,0.00,Wunderground v.1.15,2013-08-14 12:10:00,
2013-08-14 08:15:00,58.1,56.4,30.03,SSW,200,0.0,0.0,94,0.00,,,0.00,Wunderground v.1.15,2013-08-14 12:15:00,
2013-08-14 08:25:00,58.6,56.6,30.03,SSW,200,0.0,0.0,93,0.00,,,0.00,Wunderground v.1.15,2013-08-14 12:25:00,
2013-08-14 08:30:00,59.1,57.4,30.03,SSW,200,0.0,0.0,94,0.00,,,0.00,Wunderground v.1.15,2013-08-14 12:30:00,
2013-08-14 08:35:00,59.7,58.0,30.04,SSW,200,0.0,0.0,94,0.00,,,0.00,Wunderground v.1.15,2013-08-14 12:35:00,
2013-08-14 08:40:00,60.3,58.6,30.04,SSW,200,0.0,0.0,94,0.00,,,0.00,Wunderground v.1.15,2013-08-14 12:40:00,
2013-08-14 08:50:00,61.3,59.3,30.04,SSW,200,0.0,0.0,93,0.00,,,0.00,Wunderground v.1.15,2013-08-14 12:50:00,
2013-08-14 08:55:00,61.9,59.9,30.04,SSW,200,0.0,0.0,93,0.00,,,0.00,Wunderground v.1.15,2013-08-14 12:55:00,
2013-08-14 09:00:00,61.9,59.5,30.04,SSW,200,0.0,0.0,92,0.00,,,0.00,Wunderground v.1.15,2013-08-14 13:00:00,
2013-08-14 09:10:00,63.0,60.0,30.04,SSW,200,0.0,0.0,90,0.00,,,0.00,Wunderground v.1.15,2013-08-14 13:10:00,
2013-08-14 09:15:00,63.2,59.3,30.04,SSE,150,1.0,1.0,87,0.00,,,0.00,Wunderground v.1.15,2013-08-14 13:15:00,
2013-08-14 09:20:00,63.7,59.4,30.04,South,169,1.0,1.0,86,0.00,,,0.00,Wunderground v.1.15,2013-08-14 13:20:00,
2013-08-14 09:25:00,64.0,58.7,30.04,SSE,155,1.0,1.0,83,0.00,,,0.00,Wunderground v.1.15,2013-08-14 13:25:00,
2013-08-14 09:30:00,64.3,59.0,30.04,SW,234,1.0,1.0,83,0.00,,,0.00,Wunderground v.1.15,2013-08-14 13:30:00,
2013-08-14 09:40:00,64.9,58.9,30.04,NNW,333,0.0,0.0,81,0.00,,,0.00,Wunderground v.1.15,2013-08-14 13:40:00,
2013-08-14 09:45:00,65.6,60.0,30.05,SSE,167,1.0,1.0,82,0.00,,,0.00,Wunderground v.1.15,2013-08-14 13:45:00,
2013-08-14 09:55:00,65.6,57.8,30.05,WSW,258,1.0,4.0,76,0.00,,,0.00,Wunderground v.1.15,2013-08-14 13:55:00,
2013-08-14 10:00:00,65.2,57.1,30.05,SW,230,2.0,2.0,75,0.00,,,0.00,Wunderground v.1.15,2013-08-14 14:00:00,
2013-08-14 10:05:00,65.2,57.4,30.05,West,275,2.0,5.0,76,0.00,,,0.00,Wunderground v.1.15,2013-08-14 14:05:00,
2013-08-14 10:10:00,65.1,58.4,30.05,WSW,244,1.0,1.0,79,0.00,,,0.00,Wunderground v.1.15,2013-08-14 14:10:00,
2013-08-14 10:15:00,65.2,57.4,30.05,SSE,157,2.0,2.0,76,0.00,,,0.00,Wunderground v.1.15,2013-08-14 14:15:00,
2013-08-14 10:25:00,66.3,59.9,30.05,South,173,0.0,2.0,80,0.00,,,0.00,Wunderground v.1.15,2013-08-14 14:25:00,
2013-08-14 10:30:00,66.7,57.8,30.05,South,180,1.0,2.0,73,0.00,,,0.00,Wunderground v.1.15,2013-08-14 14:30:00,
2013-08-14 10:40:00,66.3,56.6,30.05,NNW,348,1.0,1.0,71,0.00,,,0.00,Wunderground v.1.15,2013-08-14 14:40:00,
2013-08-14 10:45:00,66.1,57.2,30.06,West,261,2.0,4.0,73,0.00,,,0.00,Wunderground v.1.15,2013-08-14 14:45:00,
2013-08-14 10:50:00,65.9,55.4,30.06,South,179,2.0,4.0,69,0.00,,,0.00,Wunderground v.1.15,2013-08-14 14:50:00,
2013-08-14 10:55:00,66.1,57.2,30.06,SSW,213,2.0,4.0,73,0.00,,,0.00,Wunderground v.1.15,2013-08-14 14:55:00,
2013-08-14 11:00:00,66.5,56.4,30.06,NNW,348,1.0,1.0,70,0.00,,,0.00,Wunderground v.1.15,2013-08-14 15:00:00,
2013-08-14 11:10:00,65.7,55.6,30.06,South,187,2.0,2.0,70,0.00,,,0.00,Wunderground v.1.15,2013-08-14 15:10:00,
2013-08-14 11:20:00,66.4,55.5,30.06,WSW,249,2.0,2.0,68,0.00,,,0.00,Wunderground v.1.15,2013-08-14 15:20:00,
2013-08-14 11:25:00,66.9,56.0,30.06,WNW,300,2.0,2.0,68,0.00,,,0.00,Wunderground v.1.15,2013-08-14 15:25:00,
2013-08-14 11:30:00,67.5,57.0,30.06,West,279,2.0,2.0,69,0.00,,,0.00,Wunderground v.1.15,2013-08-14 15:30:00,
2013-08-14 11:35:00,68.1,58.3,30.06,WSW,250,0.0,2.0,71,0.00,,,0.00,Wunderground v.1.15,2013-08-14 15:35:00,
2013-08-14 11:40:00,68.3,56.9,30.06,WSW,254,0.0,0.0,67,0.00,,,0.00,Wunderground v.1.15,2013-08-14 15:40:00,
2013-08-14 11:45:00,67.6,58.2,30.06,NW,319,1.0,1.0,72,0.00,,,0.00,Wunderground v.1.15,2013-08-14 15:45:00,
2013-08-14 11:55:00,66.9,58.7,30.06,South,190,1.0,1.0,75,0.00,,,0.00,Wunderground v.1.15,2013-08-14 15:55:00,
2013-08-14 12:00:00,66.9,57.6,30.06,South,190,0.0,0.0,72,0.00,,,0.00,Wunderground v.1.15,2013-08-14 16:00:00,
2013-08-14 12:10:00,67.6,55.8,30.06,South,180,1.0,1.0,66,0.00,,,0.00,Wunderground v.1.15,2013-08-14 16:10:00,
2013-08-14 12:15:00,67.9,56.5,30.06,WNW,290,1.0,6.0,67,0.00,,,0.00,Wunderground v.1.15,2013-08-14 16:15:00,
2013-08-14 12:25:00,68.1,57.9,30.06,SW,221,1.0,1.0,70,0.00,,,0.00,Wunderground v.1.15,2013-08-14 16:25:00,
2013-08-14 12:35:00,68.8,56.6,30.06,West,275,1.0,1.0,65,0.00,,,0.00,Wunderground v.1.15,2013-08-14 16:35:00,
2013-08-14 12:40:00,69.2,58.2,30.06,West,277,1.0,1.0,68,0.00,,,0.00,Wunderground v.1.15,2013-08-14 16:40:00,
2013-08-14 12:45:00,69.1,58.9,30.06,West,265,1.0,1.0,70,0.00,,,0.00,Wunderground v.1.15,2013-08-14 16:45:00,
2013-08-14 12:50:00,69.5,60.5,30.06,SW,227,1.0,1.0,73,0.00,,,0.00,Wunderground v.1.15,2013-08-14 16:50:00,
2013-08-14 12:55:00,69.5,57.6,30.05,SW,225,1.0,1.0,66,0.00,,,0.00,Wunderground v.1.15,2013-08-14 16:55:00,
2013-08-14 13:00:00,69.7,56.1,30.05,South,183,1.0,1.0,62,0.00,,,0.00,Wunderground v.1.15,2013-08-14 17:00:00,
2013-08-14 13:10:00,70.0,59.4,30.05,SSE,166,1.0,1.0,69,0.00,,,0.00,Wunderground v.1.15,2013-08-14 17:10:00,
2013-08-14 13:20:00,69.4,55.8,30.05,SSW,192,3.0,5.0,62,0.00,,,0.00,Wunderground v.1.15,2013-08-14 17:20:00,
2013-08-14 13:25:00,69.5,53.6,30.05,West,263,3.0,5.0,57,0.00,,,0.00,Wunderground v.1.15,2013-08-14 17:25:00,
2013-08-14 13:35:00,70.0,57.3,30.05,SSW,211,1.0,3.0,64,0.00,,,0.00,Wunderground v.1.15,2013-08-14 17:35:00,
2013-08-14 13:40:00,70.0,55.5,30.05,SSW,213,1.0,1.0,60,0.00,,,0.00,Wunderground v.1.15,2013-08-14 17:40:00,
2013-08-14 13:45:00,70.2,55.7,30.05,NW,312,1.0,1.0,60,0.00,,,0.00,Wunderground v.1.15,2013-08-14 17:45:00,
2013-08-14 13:55:00,70.2,54.2,30.05,SSW,202,2.0,4.0,57,0.00,,,0.00,Wunderground v.1.15,2013-08-14 17:55:00,
2013-08-14 14:00:00,70.3,57.1,30.05,SSE,148,2.0,2.0,63,0.00,,,0.00,Wunderground v.1.15,2013-08-14 18:00:00,
2013-08-14 14:05:00,70.2,57.4,30.05,SW,219,2.0,2.0,64,0.00,,,0.00,Wunderground v.1.15,2013-08-14 18:05:00,
2013-08-14 14:15:00,69.6,55.1,30.05,South,178,2.0,2.0,60,0.00,,,0.00,Wunderground v.1.15,2013-08-14 18:15:00,
2013-08-14 14:25:00,69.7,53.8,30.05,SW,236,1.0,2.0,57,0.00,,,0.00,Wunderground v.1.15,2013-08-14 18:25:00,
2013-08-14 14:30:00,70.1,53.7,30.05,SSE,168,1.0,2.0,56,0.00,,,0.00,Wunderground v.1.15,2013-08-14 18:30:00,
2013-08-14 14:40:00,70.2,52.8,30.05,SSW,212,1.0,1.0,54,0.00,,,0.00,Wunderground v.1.15,2013-08-14 18:40:00,
2013-08-14 14:45:00,70.4,55.4,30.05,SW,224,1.0,1.0,59,0.00,,,0.00,Wunderground v.1.15,2013-08-14 18:45:00,
2013-08-14 14:55:00,70.9,53.9,30.05,West,280,3.0,3.0,55,0.00,,,0.00,Wunderground v.1.15,2013-08-14 18:55:00,
2013-08-14 15:05:00,70.8,56.2,30.04,SSW,211,2.0,3.0,60,0.00,,,0.00,Wunderground v.1.15,2013-08-14 19:05:00,
2013-08-14 15:20:00,71.1,57.4,30.04,West,263,3.0,3.0,62,0.00,,,0.00,Wunderground v.1.15,2013-08-14 19:20:00,
2013-08-14 15:25:00,71.4,54.4,30.04,North,350,2.0,3.0,55,0.00,,,0.00,Wunderground v.1.15,2013-08-14 19:25:00,
2013-08-14 15:35:00,71.3,53.8,30.04,WNW,287,4.0,8.0,54,0.00,,,0.00,Wunderground v.1.15,2013-08-14 19:35:00,
2013-08-14 15:40:00,71.4,54.9,30.04,SW,227,3.0,3.0,56,0.00,,,0.00,Wunderground v.1.15,2013-08-14 19:40:00,
2013-08-14 15:45:00,71.8,54.3,30.04,SW,229,1.0,3.0,54,0.00,,,0.00,Wunderground v.1.15,2013-08-14 19:45:00,
2013-08-14 15:50:00,72.0,54.4,30.04,West,277,2.0,3.0,54,0.00,,,0.00,Wunderground v.1.15,2013-08-14 19:50:00,
2013-08-14 16:00:00,71.8,54.8,30.04,SW,225,3.0,3.0,55,0.00,,,0.00,Wunderground v.1.15,2013-08-14 20:00:00,
2013-08-14 16:05:00,71.9,55.3,30.04,WNW,299,2.0,5.0,56,0.00,,,0.00,Wunderground v.1.15,2013-08-14 20:05:00,
2013-08-14 16:15:00,71.6,54.6,30.05,West,277,4.0,8.0,55,0.00,,,0.00,Wunderground v.1.15,2013-08-14 20:15:00,
2013-08-14 16:25:00,71.5,54.0,30.04,SSE,165,3.0,5.0,54,0.00,,,0.00,Wunderground v.1.15,2013-08-14 20:25:00,
2013-08-14 16:30:00,71.5,52.9,30.04,West,269,4.0,4.0,52,0.00,,,0.00,Wunderground v.1.15,2013-08-14 20:30:00,
2013-08-14 16:40:00,71.5,54.5,30.04,WSW,257,4.0,7.0,55,0.00,,,0.00,Wunderground v.1.15,2013-08-14 20:40:00,
2013-08-14 16:45:00,71.5,54.5,30.04,West,263,4.0,7.0,55,0.00,,,0.00,Wunderground v.1.15,2013-08-14 20:45:00,
2013-08-14 16:55:00,71.6,55.1,30.05,NW,305,2.0,4.0,56,0.00,,,0.00,Wunderground v.1.15,2013-08-14 20:55:00,
2013-08-14 17:00:00,71.6,57.0,30.05,West,273,3.0,4.0,60,0.00,,,0.00,Wunderground v.1.15,2013-08-14 21:00:00,
2013-08-14 17:10:00,71.2,53.7,30.05,SW,214,5.0,5.0,54,0.00,,,0.00,Wunderground v.1.15,2013-08-14 21:10:00,
2013-08-14 17:15:00,71.3,56.2,30.05,WNW,282,4.0,5.0,59,0.00,,,0.00,Wunderground v.1.15,2013-08-14 21:15:00,
2013-08-14 17:25:00,71.1,55.1,30.04,WSW,250,2.0,3.0,57,0.00,,,0.00,Wunderground v.1.15,2013-08-14 21:25:00,
2013-08-14 17:30:00,71.1,55.6,30.04,WSW,242,2.0,2.0,58,0.00,,,0.00,Wunderground v.1.15,2013-08-14 21:30:00,
2013-08-14 17:40:00,71.0,55.0,30.05,SW,229,3.0,3.0,57,0.00,,,0.00,Wunderground v.1.15,2013-08-14 21:40:00,
2013-08-14 17:45:00,70.7,54.2,30.04,West,273,4.0,4.0,56,0.00,,,0.00,Wunderground v.1.15,2013-08-14 21:45:00,
2013-08-14 17:55:00,69.8,57.1,30.05,SW,234,3.0,4.0,64,0.00,,,0.00,Wunderground v.1.15,2013-08-14 21:55:00,
2013-08-14 18:05:00,69.3,58.7,30.05,WSW,238,1.0,2.0,69,0.00,,,0.00,Wunderground v.1.15,2013-08-14 22:05:00,
2013-08-14 18:10:00,69.2,58.6,30.05,WNW,287,1.0,3.0,69,0.00,,,0.00,Wunderground v.1.15,2013-08-14 22:10:00,
2013-08-14 18:15:00,69.5,56.8,30.05,SW,217,2.0,3.0,64,0.00,,,0.00,Wunderground v.1.15,2013-08-14 22:15:00,
2013-08-14 18:20:00,69.1,54.6,30.05,SW,236,3.0,3.0,60,0.00,,,0.00,Wunderground v.1.15,2013-08-14 22:20:00,
2013-08-14 18:25:00,68.9,56.6,30.05,SW,228,2.0,3.0,65,0.00,,,0.00,Wunderground v.1.15,2013-08-14 22:25:00,
2013-08-14 18:35:00,67.9,56.9,30.05,SW,231,2.0,2.0,68,0.00,,,0.00,Wunderground v.1.15,2013-08-14 22:35:00,
2013-08-14 18:40:00,67.7,55.5,30.05,WSW,254,1.0,1.0,65,0.00,,,0.00,Wunderground v.1.15,2013-08-14 22:40:00,
2013-08-14 18:45:00,67.6,57.5,30.05,WSW,248,1.0,1.0,70,0.00,,,0.00,Wunderground v.1.15,2013-08-14 22:45:00,
2013-08-14 18:50:00,67.2,57.5,30.05,SW,236,0.0,2.0,71,0.00,,,0.00,Wunderground v.1.15,2013-08-14 22:50:00,
2013-08-14 18:55:00,67.1,55.4,30.05,WSW,243,2.0,2.0,66,0.00,,,0.00,Wunderground v.1.15,2013-08-14 22:55:00,
2013-08-14 19:05:00,67.3,56.8,30.05,WSW,242,2.0,4.0,69,0.00,,,0.00,Wunderground v.1.15,2013-08-14 23:05:00,
2013-08-14 19:10:00,67.1,57.0,30.05,WSW,245,1.0,1.0,70,0.00,,,0.00,Wunderground v.1.15,2013-08-14 23:10:00,
2013-08-14 19:15:00,67.0,56.5,30.06,SW,225,1.0,1.0,69,0.00,,,0.00,Wunderground v.1.15,2013-08-14 23:15:00,
2013-08-14 19:25:00,66.9,55.6,30.06,WSW,238,3.0,4.0,67,0.00,,,0.00,Wunderground v.1.15,2013-08-14 23:25:00,
2013-08-14 19:35:00,66.1,56.0,30.06,SW,234,1.0,2.0,70,0.00,,,0.00,Wunderground v.1.15,2013-08-14 23:35:00,
2013-08-14 19:40:00,65.7,56.8,30.06,SW,223,1.0,2.0,73,0.00,,,0.00,Wunderground v.1.15,2013-08-14 23:40:00,
2013-08-14 19:45:00,65.2,56.7,30.06,SW,225,1.0,2.0,74,0.00,,,0.00,Wunderground v.1.15,2013-08-14 23:45:00,
2013-08-14 19:55:00,64.1,57.1,30.06,SW,225,0.0,0.0,78,0.00,,,0.00,Wunderground v.1.15,2013-08-14 23:55:00,
2013-08-14 20:05:00,62.9,56.6,30.07,SW,225,0.0,0.0,80,0.00,,,0.00,Wunderground v.1.15,2013-08-15 00:05:00,
2013-08-14 20:10:00,62.4,56.8,30.07,SW,225,0.0,0.0,82,0.00,,,0.00,Wunderground v.1.15,2013-08-15 00:10:00,
2013-08-14 20:15:00,61.8,56.2,30.07,SW,225,0.0,0.0,82,0.00,,,0.00,Wunderground v.1.15,2013-08-15 00:15:00,
2013-08-14 20:25:00,60.7,55.8,30.08,SW,225,0.0,0.0,84,0.00,,,0.00,Wunderground v.1.15,2013-08-15 00:25:00,
2013-08-14 20:30:00,60.2,55.7,30.07,SW,225,0.0,1.0,85,0.00,,,0.00,Wunderground v.1.15,2013-08-15 00:30:00,
2013-08-14 20:40:00,59.5,55.3,30.08,SW,225,0.0,0.0,86,0.00,,,0.00,Wunderground v.1.15,2013-08-15 00:40:00,
2013-08-14 20:45:00,59.3,55.1,30.08,SW,225,0.0,0.0,86,0.00,,,0.00,Wunderground v.1.15,2013-08-15 00:45:00,
2013-08-14 20:50:00,58.8,54.6,30.09,SW,225,0.0,0.0,86,0.00,,,0.00,Wunderground v.1.15,2013-08-15 00:50:00,
2013-08-14 20:55:00,58.6,54.4,30.08,SW,225,0.0,0.0,86,0.00,,,0.00,Wunderground v.1.15,2013-08-15 00:55:00,
2013-08-14 21:00:00,58.4,54.5,30.09,SW,225,0.0,0.0,87,0.00,,,0.00,Wunderground v.1.15,2013-08-15 01:00:00,
2013-08-14 21:10:00,57.9,54.1,30.09,SW,225,0.0,0.0,87,0.00,,,0.00,Wunderground v.1.15,2013-08-15 01:10:00,
2013-08-14 21:15:00,57.6,53.8,30.09,SW,225,0.0,0.0,87,0.00,,,0.00,Wunderground v.1.15,2013-08-15 01:15:00,
2013-08-14 21:25:00,57.2,53.7,30.09,SSW,205,0.0,0.0,88,0.00,,,0.00,Wunderground v.1.15,2013-08-15 01:25:00,
2013-08-14 21:30:00,57.1,53.9,30.10,SSW,205,0.0,0.0,89,0.00,,,0.00,Wunderground v.1.15,2013-08-15 01:30:00,
2013-08-14 21:40:00,56.8,53.6,30.10,SSW,205,0.0,0.0,89,0.00,,,0.00,Wunderground v.1.15,2013-08-15 01:40:00,
2013-08-14 21:45:00,56.7,53.5,30.10,SSW,205,0.0,0.0,89,0.00,,,0.00,Wunderground v.1.15,2013-08-15 01:45:00,
2013-08-14 21:50:00,56.5,53.6,30.10,SSW,205,0.0,0.0,90,0.00,,,0.00,Wunderground v.1.15,2013-08-15 01:50:00,
2013-08-14 21:55:00,56.4,53.5,30.10,SSW,205,0.0,0.0,90,0.00,,,0.00,Wunderground v.1.15,2013-08-15 01:55:00,
2013-08-14 22:05:00,56.1,53.2,30.11,SSW,205,0.0,0.0,90,0.00,,,0.00,Wunderground v.1.15,2013-08-15 02:05:00,
2013-08-14 22:10:00,56.0,53.1,30.11,SSW,205,0.0,0.0,90,0.00,,,0.00,Wunderground v.1.15,2013-08-15 02:10:00,
2013-08-14 22:15:00,55.9,53.0,30.11,SSW,205,0.0,0.0,90,0.00,,,0.00,Wunderground v.1.15,2013-08-15 02:15:00,
2013-08-14 22:25:00,55.7,53.1,30.11,SSW,205,0.0,0.0,91,0.00,,,0.00,Wunderground v.1.15,2013-08-15 02:25:00,
2013-08-14 22:30:00,55.6,52.7,30.11,SSW,205,0.0,0.0,90,0.00,,,0.00,Wunderground v.1.15,2013-08-15 02:30:00,
2013-08-14 22:40:00,55.4,52.5,30.12,SSW,205,0.0,0.0,90,0.00,,,0.00,Wunderground v.1.15,2013-08-15 02:40:00,
2013-08-14 22:45:00,55.2,52.3,30.12,SSW,205,0.0,0.0,90,0.00,,,0.00,Wunderground v.1.15,2013-08-15 02:45:00,
2013-08-14 22:55:00,55.0,52.1,30.12,SSW,205,0.0,0.0,90,0.00,,,0.00,Wunderground v.1.15,2013-08-15 02:55:00,
2013-08-14 23:05:00,55.0,52.4,30.12,SSW,205,0.0,1.0,91,0.00,,,0.00,Wunderground v.1.15,2013-08-15 03:05:00,
2013-08-14 23:10:00,55.0,52.4,30.12,SSW,205,0.0,0.0,91,0.00,,,0.00,Wunderground v.1.15,2013-08-15 03:10:00,
2013-08-14 23:15:00,54.9,52.3,30.12,SSW,205,0.0,0.0,91,0.00,,,0.00,Wunderground v.1.15,2013-08-15 03:15:00,
2013-08-14 23:25:00,54.7,52.1,30.13,SSW,205,0.0,0.0,91,0.00,,,0.00,Wunderground v.1.15,2013-08-15 03:25:00,
2013-08-14 23:30:00,54.6,52.0,30.13,SSW,205,0.0,0.0,91,0.00,,,0.00,Wunderground v.1.15,2013-08-15 03:30:00,
2013-08-14 23:40:00,54.5,51.9,30.13,SSW,205,0.0,0.0,91,0.00,,,0.00,Wunderground v.1.15,2013-08-15 03:40:00,
2013-08-14 23:45:00,54.3,52.0,30.13,SSW,205,0.0,0.0,92,0.00,,,0.00,Wunderground v.1.15,2013-08-15 03:45:00,
2013-08-14 23:50:00,54.2,51.9,30.14,SSW,205,0.0,0.0,92,0.00,,,0.00,Wunderground v.1.15,2013-08-15 03:50:00,